Overview Statistics Trail Chart Weather Telemetry Raw packets
 

This is the latest recevied weather packets stored in our database for station/object DK6GC-10. If no packets are shown the sender has not sent any weather packets the latest 10 day(s).

<< 30 31 32 33 34 35 36 >>
Time Temp. Humidity Pressure Rain* Wind** Luminosity Snow
1787979620 16.11° C 89% 1018.2 hPa - - - -
1787978720 15.56° C 90% 1018.2 hPa - - - -
1787977819 16.11° C 88% 1018.3 hPa - - - -
1787976919 16.67° C 86% 1018.3 hPa - - - -
1787976019 16.11° C 86% 1018.2 hPa - - - -
1787975119 16.11° C 87% 1018.2 hPa - - - -
1787974219 15.56° C 85% 1018.1 hPa - - - -
1787973319 16.11° C 82% 1018 hPa - - - -
1787972419 16.11° C 83% 1018.1 hPa - - - -
1787971519 16.11° C 84% 1018.2 hPa - - - -
1787970617 16.11° C 82% 1018.2 hPa - - - -
1787969717 16.67° C 81% 1018.3 hPa - - - -
1787968817 16.67° C 82% 1018.3 hPa - - - -
1787967917 17.22° C 81% 1018.4 hPa - - - -
1787967017 16.67° C 84% 1018.4 hPa - - - -
1787966116 16.11° C 85% 1018.3 hPa - - - -
1787965216 16.11° C 89% 1018.4 hPa - - - -
1787964316 16.67° C 91% 1018.4 hPa - - - -
1787963416 16.67° C 93% 1018.5 hPa - - - -
1787962515 16.67° C 92% 1018.4 hPa - - - -
1787961623 17.22° C 91% 1018.6 hPa - - - -
1787960721 17.78° C 89% 1018.7 hPa - - - -
1787959820 17.22° C 90% 1018.6 hPa - - - -
1787958920 17.78° C 89% 1018.4 hPa - - - -
1787958020 18.33° C 87% 1018.5 hPa - - - -

* Rain since midnight (hover to see other rain measurements)
** Current wind speed in m/s (hover to see current wind gust speed)